Regional Weather Roundup
Issued by NWS Charleston, WV

Home | Current Version | Previous Version | Graphics & Text | Print | Product List | Glossary On
Versions: 1 2 3 4 5 6 7 8 9 10 11 12 13 14 15 16 17 18 19 20 21 22 23 24 25 26 27 28 29 30 31 32 33 34 35 36 37 38 39 40 41 42 43 44 45 46 47 48 49
000
ASUS41 KRLX 260510
RWRRLX
West Virginia Regional Weather Roundup
National Weather Service Charleston WV
1200 AM EST SUN FEB 26 2017

Note: "fair" indicates few or no clouds below 12,000 feet with no
significant weather and/or obstructions to visibility.

WVZ003-260600-
Northern Panhandle of West Virginia

CITY           SKY/WX    TMP DP  RH WIND       PRES   REMARKS
WHEELING       CLOUDY    27  14  58 W15G23    29.98R
$$

WVZ009-260600-
Northwest West Virginia

CITY           SKY/WX    TMP DP  RH WIND       PRES   REMARKS
PARKERSBURG    CLOUDY    31  16  54 W17G24    30.07S
$$

WVZ006-260600-
Western West Virginia

CITY           SKY/WX    TMP DP  RH WIND       PRES   REMARKS
HUNTINGTON     CLOUDY    32  19  58 SW6       30.08S
$$

WVZ015-260600-
West Central West Virginia

CITY           SKY/WX    TMP DP  RH WIND       PRES   REMARKS
CHARLESTON     CLOUDY    33  15  47 W10G21    30.07R
$$

WVZ022-031-260600-
North Central West Virginia

CITY           SKY/WX    TMP DP  RH WIND       PRES   REMARKS
CLARKSBURG     CLOUDY    29  14  53 W13G24    30.01R
MORGANTOWN     CLOUDY    30  15  53 W8G20     29.99R
$$

WVZ025-035-042-045-260600-
Southern West Virginia

CITY           SKY/WX    TMP DP  RH WIND       PRES   REMARKS
BECKLEY        CLOUDY    28  16  60 W20G29    29.98R
LOGAN          CLOUDY    30  19  64 VRB6      30.05R
BLUEFIELD      CLOUDY    26  15  63 W24G35    29.96R
LEWISBURG      MOCLDY    28  15  57 W12G23    29.95S
$$

WVZ047-260600-
Northern Mountains of West Virginia

CITY           SKY/WX    TMP DP  RH WIND       PRES   REMARKS
ELKINS         FLURRIES  29  17  61 VRB7      29.96R
$$

WVZ052-260600-
Eastern Panhandle of West Virginia

CITY           SKY/WX    TMP DP  RH WIND       PRES   REMARKS
MARTINSBURG    CLOUDY    39  21  48 W10G21    29.87R
PETERSBURG     CLOUDY    36  22  56 W9G17     29.93R
$$




USA.gov is the U.S. government's official web portal to all federal, state and local government web resources and services.